Location: Paddlesworth
(51.1000°N, 1.1333°E)
Time: 18:05:04
(UTC+00:00)

NOSS 2-1 (C) - Pass Details

Date: 11 May 2021
Orbit: 430 x 1771 km, 63.3° (Epoch: 26 May)

Event Time Altitude Azimuth Distance (km) Brightness Sun altitude
Rises 23:46:52 0° 316° (NW) 2,786 7.6 -20.8°
Reaches altitude 10° 23:48:50 10° 319° (NW) 2,009 6.9 -20.8°
Maximum altitude 23:53:20 68° 43° (NE) 837 4.3 -20.8°
Enters shadow 23:58:27 15° 125° (SE) 2,335 6.2 -20.7°
